Location: Norton
(51.3000°N, 0.8167°E)
Time: 13:55:31
(UTC+00:00)

CSL-04 Rocket - Pass Details

Date: 03 March 2021
Orbit: 805 x 861 km, 98.9° (Epoch: 10 April)

Event Time Altitude Azimuth Distance (km) Brightness Sun altitude
Rises 18:23:10 0° 148° (SSE) 3,426 6.6 -7.4°
Reaches altitude 10° 18:25:35 10° 144° (SE) 2,491 5.8 -7.7°
Maximum altitude 18:30:59 56° 68° (ENE) 1,010 3.8 -8.6°
Drops below altitude 10° 18:36:22 10° 351° (N) 2,483 6.3 -9.4°
Sets 18:38:45 0° 348° (NNW) 3,415 7.1 -9.8°
